Location: Antichan
(42.9728°N, 0.6667°E)
Time: 10:16:05
(UTC+00:00)

Cosmos 2322 Rocket - Pass Details

Date: 15 August 2020
Orbit: 831 x 852 km, 71.0° (Epoch: 18 September)

Event Time Altitude Azimuth Distance (km) Brightness Sun altitude
Rises 21:55:58 0° 328° (NNW) 3,422 6.7 -26.5°
Reaches altitude 10° 21:58:32 10° 322° (NW) 2,484 5.6 -26.7°
Maximum altitude 22:03:50 41° 254° (WSW) 1,220 3.1 -27.2°
Enters shadow 22:04:43 38° 231° (SW) 1,270 3.0 -27.3°
